Regional Weather Roundup
Issued by NWS Charleston, SC

Current Version | Previous Version | Graphics & Text | Print | Product List | Glossary On
Versions: 1 2 3 4 5 6 7 8 9 10 11 12 13 14 15 16 17 18 19 20 21 22 23 24 25 26 27 28 29 30 31 32 33 34 35 36 37 38 39 40 41 42 43 44 45 46 47 48 49 50
000 ASUS42 KCHS 100012 RWRCHS REGIONAL WEATHER ROUNDUP NATIONAL WEATHER SERVICE CHARLESTON SC 700 PM EST FRI DEC 09 2016 NOTE: "FAIR" INDICATES FEW OR NO CLOUDS BELOW 12,000 FEET WITH NO SIGNIFICANT WEATHER AND/OR OBSTRUCTIONS TO VISIBILITY. NOT ALL STATIONS ARE QUALITY CONTROLLED. USE DATA WITH CAUTION... ESPECIALLY DEWPOINT OBSERVATIONS. SCZ027-030-031-034>040-042>050-100100- ...SOUTHEAST SOUTH CAROLINA... CITY SKY/WX TMP DP RH WIND PRES REMARKS N CHARLESTON CLEAR 37 26 64 N5 30.44R WCI 33 6HR MIN TEMP: 37; 6HR MAX TEMP: 51; WATERFRONT PRK N/A 45 26 47 N7 30.43R MOUNT PLEASANT NOT AVBL JOHNS ISLAND FAIR 41 25 52 NW6 30.44R PINOPOLIS N/A 45 25 45 NE10 30.36R MONCKS CORNER FAIR 34 25 69 CALM 30.44R SUMMERVILLE FAIR 36 30 80 CALM 30.45R BEAUFORT MCAS CLEAR 41 26 55 NE6 30.44R 6HR MIN TEMP: 40; 6HR MAX TEMP: 53; BEAUFORT ARPT FAIR 41 30 65 N7 30.43R HILTON HEAD IS CLEAR 45 21 39 N8 30.43R WALTERBORO CLEAR 37 30 75 CALM 30.45R ALLENDALE FAIR 37 28 70 CALM 30.43R ...SOUTHERN MIDLANDS AND PEE DEE... CITY SKY/WX TMP DP RH WIND PRES REMARKS GEORGETOWN NOT AVBL KINGSTREE FAIR 32 28 86 CALM 30.45R ORANGEBURG CLEAR 36 27 69 NE3 30.44R 6HR MIN TEMP: 35; 6HR MAX TEMP: 49; BARNWELL NOT AVBL AIKEN FAIR 34 23 64 CALM 30.45R MANNING FAIR 32 25 74 CALM 30.44R COLUMBIA CLEAR 35 25 66 CALM 30.43R 6HR MIN TEMP: 35; 6HR MAX TEMP: 49; SUMTER CLEAR 35 20 55 NE6 30.42R WCI 30 6HR MIN TEMP: 35; 6HR MAX TEMP: 48; FLORENCE CLEAR 37 21 52 N5 30.45R WCI 33 6HR MIN TEMP: 36; 6HR MAX TEMP: 46; MYRTLE BEACH CLEAR 39 21 48 NW6 30.45R WCI 35 N MYRTLE BEACH CLEAR 36 28 73 N3 30.43R 6HR MIN TEMP: 35; 6HR MAX TEMP: 46; $$ GAZ063-065-086>088-099>101-113>116-118-119-134>141-150-100100- ...SOUTHEAST GEORGIA... CITY SKY/WX TMP DP RH WIND PRES REMARKS SAVANNAH ARPT PTCLDY 40 28 62 NW3 30.44R 6HR MIN TEMP: 40; 6HR MAX TEMP: 54; HUNTER AAF CLEAR 45 27 49 N5 30.40R 6HR MIN TEMP: 45; 6HR MAX TEMP: 54; FORT STEWART CLEAR 38 30 73 CALM 30.41R 6HR MIN TEMP: 38; 6HR MAX TEMP: 54; STATESBORO CLEAR 36 32 86 CALM 30.43S SYLVANIA CLEAR N/A N/A N/A CALM 30.43S CLAXTON FAIR 38 32 79 CALM 30.44R ...CSRA...CENTRAL AND FAR SOUTHEAST GEORGIA... CITY SKY/WX TMP DP RH WIND PRES REMARKS THOMSON CLEAR 36 29 74 CALM 30.48R AUGUSTA-BUSH CLEAR 35 25 66 CALM 30.43R 6HR MIN TEMP: 34; 6HR MAX TEMP: 52; AUGUSTA-DANIEL CLEAR 43 20 39 N3 30.43R SWAINSBORO FAIR 36 30 80 MISG 30.44R VIDALIA PTCLDY 41 32 70 CALM 30.43R EASTMAN FAIR 36 16 44 CALM 30.47R HAZLEHURST FAIR 41 32 70 CALM 30.42R ALMA CLEAR 39 30 70 N3 30.42R 6HR MIN TEMP: 37; 6HR MAX TEMP: 53; WAYCROSS CLEAR 42 34 72 CALM 30.42R JESUP FAIR 43 34 70 NE3 30.42S BAXLEY FAIR 39 32 75 CALM 30.42R BRUNSWICK CLEAR 45 32 61 N3 30.42R SAINT SIMONS CLEAR 46 29 51 N6 30.40R 6HR MIN TEMP: 46; 6HR MAX TEMP: 56; $$ SCZ027-028-034-036>038-045-046-048>050-GAZ119-141-100100- ...LAKE AND SUPPLEMENTAL COASTAL OBSERVATIONS... STATION/POSITION TIME TEMP WIND PRES WAVE SWELL AIR SEA DIR/SP/G HT/PER HT/PER/DIR (UTC) (F) (DEG/KT/KT) (MB) (FT/S) (FT/S/D) WINYAH BAY 2245 41 340/ 3 1029.0 LAKE MURRAY 2320 41 CALM / 1 1029.5S ACE BASIN NERRS NOT AVBL FORT PULASKI 2348 47 61 10/ 4/ 7 1030.4R SAPELO ISLAND 2300 50 350/ 7 1029.0 $$ ANZ835-935-AMZ111-154-330-350-352-354-370-450-454-472-100100- ...C-MAN AND BUOY OBSERVATIONS... STATION/POSITION TIME TEMP WIND PRES WAVE SWELL AIR SEA DIR/SP/G HT/PER HT/PER/DIR (UTC) (F) (DEG/KT/KT) (MB) (FT/S) (FT/S/D) BUOY 41004 2250 50 72 350/ 14/ 17 1028.2 4/ 6 2/ 60/ 7 BUOY 41008 2250 51 63 10/ 12/ 16 1028.7 3/ 7 2/ 80/ 7 FOLLY BEACH CMAN 2300 45 340/ 6/ 9 1030.6R CAPERS NEARSHORE 2308 47 60 360/ 12/ 16 1029.9R FRIPP NEARSHORE 2308 49 61 340/ 12/ 16 1029.6R STATION/POSITION TIME TEMP WIND PRES WAVE SWELL AIR SEA DIR/SP/G HT/PER HT/PER/DIR (UTC) (F) (DEG/KT/KT) (MB) (FT/S) (FT/S/D) 5E ST. MARYS GA 2330 65 N/A 3/ 6 FRYING PAN BUOY 2350 47 72 340/ 16/ 21 1029.5R 3/ 6 2/ 80/ 8 BUOY 41025 2350 42 77 350/ 17/ 23 1029.0R 5/10 5/ 70/10 CAPE LOOKOUT NC 2300 40 340/ 14/ 17 1029.0R BUOY 41002 2250 59 73 350/ 16/ 19 1025.1 6/ 6 3/360/ 7 BUOY 41010 NOT AVBL ST AUGUSTINE FL 0000 55 65 10/ 17/ 19 1029.2R $$

USA.gov is the U.S. government's official web portal to all federal, state and local government web resources and services.